Location: Unspecified
(43.4354°N, 0.0000°E)
Time: 05:20:38
(UTC+00:00)

S-56A Canister/Altair - Pass Details

Date: 29 June 2019
Orbit: 633 x 2499 km, 38.9° (Epoch: 21 August)

Event Time Altitude Azimuth Distance (km) Brightness Sun altitude
Rises 15:49:37 0° 263° (W) 5,569 12.8 39.7°
Reaches altitude 10° 15:53:43 10° 261° (W) 4,308 12.6 39.0°
Maximum altitude 16:04:33 66° 183° (S) 1,497 9.6 37.0°
Drops below altitude 10° 16:11:34 10° 102° (ESE) 2,866 10.1 35.7°
Sets 16:13:48 0° 99° (E) 3,630 10.5 35.3°
